Date String (YYYY-MM-DD hh:mm:ss) UTC,Instrument flags,Ambient pressure (hPa),Sample flow (lpm),Bypass flow (lpm),Sample temperature (°C),Ambient temperature (°C),ASC tube jacket temperature (°C),LED temperature (°C),Box temperature (°C),Sample RH (%),Span deviation,Mass concentration (μg/m³),Mass concentration (μg/m³),Mass concentration (μg/m³)
DateTimeUTC,F1_M11,P_M11,Q1_M11,Q2_M11,T1_M11,T2_M11,T3_M11,T4_M11,T5_M11,U1_M11,ZSPAN_M11,X0_M11,X2_M11,X1_M11
2021-08-23 18:00:00,,0827.4,4.99,0.00,29.2,26.4,00.0,38.2,30.6,27.3,0002.3,0028.65,0020.25,0018.85
2021-08-23 18:01:00,,0827.4,5.01,0.00,29.0,25.6,00.0,38.1,30.3,27.1,0002.5,0027.66,0020.29,0018.89
2021-08-23 18:02:00,,0827.4,4.99,0.00,29.0,25.9,00.0,38.1,30.4,27.8,0002.4,0027.73,0020.24,0018.84
2021-08-23 18:03:00,,0827.4,5.00,0.00,28.9,26.4,00.0,38.1,30.5,27.6,0002.3,0027.95,0020.28,0018.83
2021-08-23 18:04:00,,0827.4,5.00,0.00,28.9,26.8,00.0,38.1,30.7,27.5,0002.3,0028.17,0020.22,0018.79
2021-08-23 18:05:00,,0827.4,4.99,0.00,29.0,27.2,00.0,38.0,30.8,27.9,0002.3,0028.35,0020.22,0018.79
2021-08-23 18:06:00,,0827.4,5.02,0.00,29.0,27.6,00.0,38.1,30.9,28.4,0002.5,0028.56,0020.28,0018.81
2021-08-23 18:07:00,,0827.4,4.99,0.00,29.1,27.8,00.0,38.1,31.0,28.2,0002.3,0028.73,0020.29,0018.82
2021-08-23 18:08:00,,0827.4,5.00,0.00,29.1,28.1,00.0,38.1,31.0,28.0,0002.2,0029.27,0020.26,0018.81
2021-08-23 18:09:00,,0827.3,5.01,0.00,29.2,28.2,00.0,38.1,31.1,27.6,0002.2,0029.36,0020.27,0018.80
2021-08-23 18:10:00,,0827.3,5.00,0.00,29.2,28.4,00.0,38.1,31.2,27.0,0002.1,0028.61,0020.27,0018.81
2021-08-23 18:11:00,,0827.4,4.99,0.00,29.3,28.4,00.0,38.2,31.2,27.2,0002.1,0028.45,0020.25,0018.82
2021-08-23 18:12:00,,0827.2,5.00,0.00,29.2,26.9,00.0,38.2,30.8,27.1,0002.0,0028.48,0020.30,0018.84
2021-08-23 18:13:00,,0827.2,5.01,0.00,29.1,25.7,00.0,38.2,30.4,28.4,0002.2,0028.78,0020.36,0018.97
2021-08-23 18:14:00,,0827.2,4.99,0.00,29.0,25.8,00.0,38.1,30.5,28.9,0002.0,0029.94,0020.36,0019.00
2021-08-23 18:15:00,,0827.1,5.00,0.00,28.9,26.3,00.0,38.1,30.6,28.8,0002.1,0029.99,0020.37,0019.02
2021-08-23 18:16:00,,0827.2,5.01,0.00,29.0,26.8,00.0,38.1,30.7,29.7,0002.2,0029.89,0020.36,0018.99
2021-08-23 18:17:00,,0827.1,4.99,0.00,29.0,27.2,00.0,38.1,30.8,27.3,0002.0,0029.67,0020.16,0018.81
2021-08-23 18:18:00,,0827.1,5.01,0.00,29.0,27.5,00.0,38.1,30.9,27.5,0002.0,0029.41,0019.87,0018.51
2021-08-23 18:19:00,,0827.2,4.99,0.00,29.1,27.8,00.0,38.1,31.0,25.9,0001.9,0028.73,0019.40,0018.10
2021-08-23 18:20:00,,0827.0,5.02,0.00,29.1,28.1,00.0,38.1,31.1,27.3,0002.0,0028.25,0018.88,0017.65
2021-08-23 18:21:00,,0827.0,5.00,0.00,29.2,28.3,00.0,38.1,31.1,26.6,0001.9,0028.32,0018.48,0017.27
2021-08-23 18:22:00,,0827.0,5.00,0.00,29.3,28.4,00.0,38.2,31.2,26.5,0002.0,0027.93,0018.14,0016.93
2021-08-23 18:23:00,,0827.0,5.00,0.00,29.2,27.4,00.0,38.2,30.9,27.9,0002.0,0027.51,0017.84,0016.63
2021-08-23 18:24:00,,0826.9,4.99,0.00,29.1,26.0,00.0,38.2,30.5,27.3,0001.9,0027.04,0017.59,0016.37
2021-08-23 18:25:00,,0826.9,5.00,0.00,29.0,26.1,00.0,38.2,30.5,27.0,0001.8,0025.60,0017.26,0016.05
2021-08-23 18:26:00,,0827.0,5.01,0.00,29.0,26.5,00.0,38.1,30.6,25.8,0001.8,0024.71,0016.87,0015.69
2021-08-23 18:27:00,,0827.2,5.00,0.00,29.0,26.9,00.0,38.1,30.7,24.6,0001.6,0024.37,0016.20,0015.10
2021-08-23 18:28:00,,0827.1,4.99,0.00,29.0,27.3,00.0,38.1,30.8,26.2,0001.6,0024.25,0015.68,0014.63
2021-08-23 18:29:00,,0827.0,5.01,0.00,29.1,27.7,00.0,38.1,30.9,25.1,0001.8,0024.26,0015.24,0014.26
2021-08-23 18:30:00,,0826.8,4.99,0.00,29.1,28.0,00.0,38.1,31.0,25.0,0002.0,0023.61,0014.93,0013.95
2021-08-23 18:31:00,,0826.8,5.00,0.00,29.2,28.2,00.0,38.1,31.1,26.1,0001.8,0022.96,0014.70,0013.68
2021-08-23 18:32:00,,0826.8,5.00,0.00,29.2,28.1,00.0,38.2,31.1,26.6,0001.8,0021.98,0014.36,0013.37
2021-08-23 18:33:00,,0826.8,5.01,0.00,29.2,26.7,00.0,38.2,30.7,26.0,0001.8,0022.04,0013.90,0012.97
2021-08-23 18:34:00,,0826.7,5.01,0.00,29.0,25.9,00.0,38.2,30.5,27.0,0001.8,0021.51,0013.34,0012.45
2021-08-23 18:35:00,,0826.7,4.99,0.00,29.0,26.2,00.0,38.1,30.6,25.4,0001.7,0020.24,0012.71,0011.87
2021-08-23 18:36:00,,0826.7,4.99,0.00,29.0,26.6,00.0,38.1,30.7,25.4,0001.8,0019.30,0012.15,0011.37
2021-08-23 18:37:00,,0826.7,5.01,0.00,29.0,27.1,00.0,38.1,30.8,25.3,0001.9,0018.93,0011.69,0010.98
2021-08-23 18:38:00,,0826.7,4.99,0.00,29.0,27.5,00.0,38.1,30.9,25.1,0002.0,0018.55,0011.56,0010.87
2021-08-23 18:39:00,,0826.7,5.01,0.00,29.1,27.8,00.0,38.1,31.0,24.6,0001.9,0017.71,0011.40,0010.72
2021-08-23 18:40:00,,0826.7,4.99,0.00,29.2,28.1,00.0,38.1,31.1,23.4,0001.7,0016.81,0011.16,0010.45
2021-08-23 18:41:00,,0826.6,5.01,0.00,29.2,27.3,00.0,38.1,30.8,23.1,0001.8,0016.31,0010.90,0010.20
2021-08-23 18:42:00,,0826.6,4.99,0.00,29.0,25.8,00.0,38.1,30.3,23.2,0002.2,0016.17,0010.54,0009.89
2021-08-23 18:43:00,,0826.5,5.01,0.00,28.9,25.8,00.0,38.1,30.3,22.2,0002.3,0016.01,0010.17,0009.53
2021-08-23 18:44:00,,0826.5,5.00,0.00,28.9,26.2,00.0,38.1,30.4,21.8,0002.2,0014.74,0009.76,0009.18
2021-08-23 18:45:00,,0826.5,4.99,0.00,28.9,26.7,00.0,38.0,30.6,21.7,0002.2,0014.11,0009.37,0008.83
2021-08-23 18:46:00,,0826.5,5.00,0.00,28.9,27.1,00.0,38.0,30.7,21.0,0002.2,0013.79,0009.05,0008.52
2021-08-23 18:47:00,,0826.5,5.00,0.00,29.0,27.5,00.0,38.0,30.8,21.6,0002.2,0013.45,0008.75,0008.21
2021-08-23 18:48:00,,0826.5,5.01,0.00,29.0,27.8,00.0,38.0,30.9,22.2,0002.1,0013.06,0008.51,0007.91
2021-08-23 18:49:00,,0826.4,5.01,0.00,29.1,28.1,00.0,38.0,31.0,20.8,0001.9,0012.65,0008.20,0007.58
2021-08-23 18:50:00,,0826.5,5.00,0.00,29.1,27.4,00.0,38.1,30.8,20.3,0002.0,0012.66,0007.90,0007.28
2021-08-23 18:51:00,,0826.5,5.01,0.00,29.0,25.9,00.0,38.0,30.3,20.4,0002.3,0012.77,0007.65,0007.08
2021-08-23 18:52:00,,0826.4,4.99,0.00,28.9,25.8,00.0,38.0,30.3,22.7,0002.2,0012.62,0007.52,0006.96
2021-08-23 18:53:00,,0826.4,4.99,0.00,28.8,26.2,00.0,38.0,30.5,25.3,0002.2,0012.40,0007.61,0007.03
2021-08-23 18:54:00,,0826.3,5.00,0.00,28.8,26.7,00.0,38.0,30.6,24.4,0002.3,0012.24,0007.79,0007.19
2021-08-23 18:55:00,,0826.3,4.99,0.00,28.9,27.1,00.0,38.0,30.7,23.5,0002.5,0012.52,0007.95,0007.33
2021-08-23 18:56:00,,0826.3,5.01,0.00,28.9,27.5,00.0,38.0,30.8,22.5,0002.6,0012.63,0008.04,0007.41
2021-08-23 18:57:00,,0826.2,5.01,0.00,29.0,27.8,00.0,38.0,30.9,23.3,0002.7,0012.86,0008.08,0007.46
2021-08-23 18:58:00,,0826.2,4.99,0.00,29.1,27.9,00.0,38.0,30.9,23.0,0002.6,0013.04,0008.16,0007.57
2021-08-23 18:59:00,,0826.2,5.01,0.00,29.0,26.6,00.0,38.0,30.6,22.1,0002.5,0013.37,0008.15,0007.61
